KQ5S-13 Weather Reports


time (UTC)temp
C
wind
direction
speed
KPH
gust
KPH
rain 1hr
cm
rain 24hr
cm
rain mn
cm
humidity
%
barometer
mb
20260906100516 23 0.0 0.0 0.00 0.00 0.00 88 1013.4
20260906095516 23 0.0 0.0 0.00 0.00 0.00 88 1013.4
20260906094515 23 0.0 0.0 0.00 0.00 0.00 87 1012.8
20260906093516 24 158 3.2 6.4 0.00 0.00 0.00 87 1012.4
20260906092516 24 0.0 0.0 0.00 0.00 0.00 86 1012.7
20260906091516 24 0.0 0.0 0.00 0.00 0.00 86 1012.7
20260906090516 24 0 1.6 4.8 0.00 0.00 0.00 86 1013.0
20260906085516 24 23 3.2 8.0 0.00 0.00 0.00 87 1013.2
20260906084516 24 45 4.8 14.5 0.00 0.00 0.00 90 1013.6
20260906083516 24 0 3.2 8.0 0.00 0.00 0.00 91 1013.8
20260906082536 24 315 1.6 4.8 0.00 0.00 0.00 91 1013.6
20260906081516 24 0 1.6 6.4 0.00 0.00 0.00 91 1013.4
20260906080516 24 0.0 0.0 0.00 0.00 0.00 90 1013.2
20260906075515 24 0.0 3.2 0.00 0.00 0.00 90 1013.3
20260906074536 24 68 1.6 3.2 0.00 0.00 0.00 90 1013.5
20260906073515 24 0.0 1.6 0.00 0.00 0.00 90 1013.4
20260906072535 24 293 1.6 3.2 0.00 0.00 0.00 90 1013.2
20260906071515 24 0.0 3.2 0.00 0.00 0.00 90 1013.2
20260906070516 24 315 1.6 6.4 0.00 0.00 0.00 90 1013.1
20260906065515 24 293 1.6 4.8 0.00 0.00 0.00 90 1013.0
20260906064515 23 0.0 6.4 0.00 0.00 0.00 89 1012.9
20260906063515 23 0.0 0.0 0.00 0.00 0.00 88 1013.0
20260906062515 24 0.0 1.6 0.00 0.00 0.00 87 1013.1
20260906061516 24 0.0 0.0 0.00 0.00 0.00 87 1013.3
20260906060515 24 180 1.6 4.8 0.00 0.00 0.00 86 1013.3
20260906055516 24 0.0 1.6 0.00 0.00 0.00 86 1013.4
20260906054515 24 0.0 4.8 0.00 0.00 0.00 85 1013.4
20260906053517 25 270 1.6 4.8 0.00 0.00 0.00 85 1013.2
20260906052558 25 158 1.6 3.2 0.00 0.00 0.00 84 1013.4
20260906051517 25 0.0 1.6 0.00 0.00 0.00 83 1013.4
20260906050518 25 0.0 3.2 0.00 0.00 0.00 83 1013.5
20260906045516 25 0 1.6 3.2 0.00 0.00 0.00 82 1013.6
20260906044516 25 0 1.6 3.2 0.00 0.00 0.00 81 1013.6
20260906043516 25 0.0 0.0 0.00 0.00 0.00 80 1013.6
20260906042516 26 0.0 1.6 0.00 0.00 0.00 80 1013.6
20260906041516 26 0.0 3.2 0.00 0.00 0.00 79 1013.6
20260906040536 26 0.0 3.2 0.00 0.00 0.00 78 1013.8
20260906035516 26 0.0 3.2 0.00 0.00 0.00 77 1013.7
20260906034516 26 0.0 0.0 0.00 0.00 0.00 76 1013.6
20260906033516 26 0.0 0.0 0.00 0.00 0.00 76 1013.6
20260906032516 27 0.0 0.0 0.00 0.00 0.00 74 1013.6
20260906031516 27 0.0 0.0 0.00 0.00 0.00 74 1013.5
20260906030536 27 0.0 0.0 0.00 0.00 0.00 72 1013.4
20260906025516 27 0.0 0.0 0.00 0.00 0.00 71 1013.4
20260906024535 27 90 1.6 3.2 0.00 0.00 0.00 71 1013.3
20260906023516 27 90 1.6 4.8 0.00 0.00 0.00 70 1013.2
20260906022516 27 90 1.6 3.2 0.00 0.00 0.00 69 1013.1
20260906021536 28 68 3.2 6.4 0.00 0.00 0.00 68 1013.1
20260906020515 28 68 3.2 6.4 0.00 0.00 0.00 67 1013.1
20260906015536 28 68 4.8 6.4 0.00 0.00 0.00 66 1012.9
20260906014535 28 68 3.2 4.8 0.00 0.00 0.00 66 1012.9
20260906013516 28 45 3.2 6.4 0.00 0.00 0.00 68 1012.9
20260906012515 28 68 3.2 8.0 0.00 0.00 0.00 68 1012.4
20260906011515 28 45 3.2 6.4 0.00 0.00 0.00 72 1012.1
20260906010516 28 45 1.6 4.8 0.00 0.00 0.00 71 1011.7
20260906005515 29 90 3.2 6.4 0.00 0.00 0.00 72 1011.1
20260906004515 30 0.0 0.0 0.00 0.00 0.00 69 1011.1
20260906003518 30 0 1.6 3.2 0.00 0.00 0.00 68 1011.2
20260906002535 30 68 1.6 3.2 0.00 0.00 0.00 66 1011.3
20260906001515 30 90 1.6 4.8 0.00 0.00 0.00 66 1011.7
20260906000515 31 90 1.6 4.8 0.00 0.00 0.00 65 1011.6
20260905235535 31 68 3.2 6.4 0.00 0.00 0.00 64 1011.7
20260905234515 31 90 3.2 6.4 0.00 0.00 0.00 63 1011.7
20260905233516 31 90 6.4 12.9 0.00 0.00 0.00 62 1011.9
20260905232515 32 90 3.2 4.8 0.00 0.00 0.00 64 1011.9
20260905231515 32 315 1.6 4.8 0.00 0.00 0.00 61 1011.6
20260905230516 32 0 1.6 4.8 0.00 0.00 0.00 60 1011.3
20260905225515 33 0 3.2 11.3 0.00 0.00 0.00 58 1011.3
20260905224535 33 68 4.8 12.9 0.00 0.00 0.00 57 1011.5
20260905223518 34 338 3.2 14.5 0.00 0.00 0.00 56 1011.6
20260905222537 35 270 1.6 4.8 0.00 0.00 0.00 55 1011.6
20260905221517 35 248 3.2 6.4 0.00 0.00 0.00 55 1011.6
20260905220517 35 293 1.6 6.4 0.00 0.00 0.00 55 1011.7
20260905215517 35 293 3.2 4.8 0.00 0.00 0.00 55 1011.7
20260905214518 35 293 3.2 6.4 0.00 0.00 0.00 53 1011.8
20260905213537 35 270 1.6 6.4 0.00 0.00 0.00 54 1011.8
20260905212517 35 45 1.6 6.4 0.00 0.00 0.00 54 1011.8
20260905211537 34 270 1.6 4.8 0.00 0.00 0.00 54 1011.7
20260905210517 34 270 3.2 6.4 0.00 0.00 0.00 54 1011.8
20260905205517 34 68 3.2 9.7 0.00 0.00 0.00 54 1011.8
20260905204537 34 338 3.2 12.9 0.00 0.00 0.00 52 1011.9
20260905203517 34 270 3.2 6.4 0.00 0.00 0.00 56 1012.1
20260905202537 34 315 3.2 11.3 0.00 0.00 0.00 54 1012.2
20260905201517 34 270 3.2 6.4 0.00 0.00 0.00 54 1012.3
20260905200537 34 338 3.2 6.4 0.00 0.00 0.00 54 1012.5
20260905195517 34 68 4.8 12.9 0.00 0.00 0.00 55 1012.6
20260905194517 34 315 3.2 9.7 0.00 0.00 0.00 56 1012.7
20260905193517 34 315 3.2 8.0 0.00 0.00 0.00 56 1012.7
20260905192517 34 338 3.2 8.0 0.00 0.00 0.00 55 1013.0
20260905191537 33 293 3.2 11.3 0.00 0.00 0.00 57 1013.1
20260905190517 33 45 4.8 12.9 0.00 0.00 0.00 54 1013.2
20260905185517 33 248 3.2 11.3 0.00 0.00 0.00 56 1013.4
20260905184517 33 338 4.8 19.3 0.00 0.00 0.00 55 1013.5
20260905183537 33 315 3.2 6.4 0.00 0.00 0.00 56 1013.6
20260905182517 33 270 3.2 9.7 0.00 0.00 0.00 57 1013.8
20260905181517 33 315 3.2 6.4 0.00 0.00 0.00 58 1014.0
20260905180517 33 315 4.8 9.7 0.00 0.00 0.00 57 1014.1
20260905175537 33 315 4.8 12.9 0.00 0.00 0.00 58 1014.3
20260905174517 33 270 4.8 8.0 0.00 0.00 0.00 59 1014.3
20260905173517 33 293 3.2 6.4 0.00 0.00 0.00 60 1014.3
20260905172517 33 315 3.2 8.0 0.00 0.00 0.00 60 1014.5
20260905171517 33 338 3.2 8.0 0.00 0.00 0.00 59 1014.6
20260905170557 33 338 3.2 8.0 0.00 0.00 0.00 59 1014.7
20260905165517 33 338 3.2 6.4 0.00 0.00 0.00 60 1014.8
20260905164517 33 248 3.2 8.0 0.00 0.00 0.00 63 1015.0
20260905163516 34 338 3.2 9.7 0.00 0.00 0.00 61 1015.0
20260905162537 34 0 3.2 6.4 0.00 0.00 0.00 62 1015.2
20260905161516 33 338 4.8 9.7 0.00 0.00 0.00 66 1015.4
20260905160516 33 45 3.2 8.0 0.00 0.00 0.00 64 1015.4
20260905155517 33 315 3.2 6.4 0.00 0.00 0.00 62 1015.4
20260905154516 33 315 4.8 12.9 0.00 0.00 0.00 66 1015.5
20260905153517 33 338 3.2 11.3 0.00 0.00 0.00 68 1015.5
20260905152516 32 68 3.2 9.7 0.00 0.00 0.00 67 1015.5
20260905151517 32 68 3.2 6.4 0.00 0.00 0.00 67 1015.4
20260905150517 32 68 3.2 6.4 0.00 0.00 0.00 70 1015.5
20260905145516 32 338 3.2 6.4 0.00 0.00 0.00 72 1015.5
20260905144516 31 68 6.4 14.5 0.00 0.00 0.00 75 1015.5
20260905143516 30 68 1.6 8.0 0.00 0.00 0.00 78 1015.6
20260905142517 29 315 1.6 6.4 0.00 0.00 0.00 80 1015.6
20260905141516 28 315 1.6 6.4 0.00 0.00 0.00 83 1015.5
20260905140516 27 270 1.6 3.2 0.00 0.00 0.00 86 1015.5
20260905135536 27 338 3.2 6.4 0.00 0.00 0.00 87 1015.5
20260905134517 26 338 1.6 6.4 0.00 0.00 0.00 90 1015.5
20260905133516 26 0 1.6 4.8 0.00 0.00 0.00 92 1015.6
20260905132517 25 0.0 1.6 0.00 0.00 0.00 92 1015.6
20260905131516 25 0.0 0.0 0.00 0.00 0.00 93 1015.8
20260905130536 25 0.0 0.0 0.00 0.00 0.00 94 1015.8
20260905125516 24 0.0 0.0 0.00 0.00 0.00 94 1015.8
20260905124516 23 0.0 3.2 0.00 0.00 0.00 95 1015.8
20260905123516 23 0.0 0.0 0.00 0.00 0.00 95 1015.6
20260905122516 23 0.0 0.0 0.00 0.00 0.00 95 1015.6
20260905121516 22 0.0 0.0 0.00 0.00 0.00 94 1015.7
20260905120516 22 0.0 0.0 0.00 0.00 0.00 94 1015.5
20260905115516 22 0.0 0.0 0.00 0.00 0.00 94 1015.5
20260905114516 22 0.0 0.0 0.00 0.00 0.00 94 1015.4
20260905113536 22 0.0 0.0 0.00 0.00 0.00 94 1015.3
20260905112516 22 0.0 0.0 0.00 0.00 0.00 94 1015.2
20260905111516 22 0.0 0.0 0.00 0.00 0.00 94 1015.0
20260905110516 22 0.0 0.0 0.00 0.00 0.00 94 1014.9
20260905105516 22 0.0 0.0 0.00 0.00 0.00 94 1014.9
20260905104516 22 0.0 0.0 0.00 0.00 0.00 94 1014.7
20260905103516 22 0.0 0.0 0.00 0.00 0.00 94 1014.7
20260905102516 22 0.0 3.2 0.00 0.00 0.00 94 1014.6
20260905101516 22 225 1.6 3.2 0.00 0.00 0.00 94 1014.6